Weather History for PANT - March, 2014

Change the Weather History Date:

Tuesday, March 18, 2014

  Actual Average Record
Temperature  
Mean Temperature 36 °F 40 °F  
Max Temperature 42 °F 45 °F 56 °F (1981)
Min Temperature 30 °F 35 °F 17 °F (2006)
Degree Days  
Heating Degree Days 29 25  
Month to date heating degree days 546 470  
Since 1 July heating degree days 5035 5008  
Cooling Degree Days 0    
Month to date cooling degree days 0  
Year to date cooling degree days 0  
Moisture  
Dew Point 38 °F    
Average Humidity 0    
Maximum Humidity 0    
Minimum Humidity 0    
Precipitation  
Precipitation 0.97 in 0.27 in 3.65 in (1960)
Month to date precipitation 7.58 4.56  
Year to date precipitation 19.68 22.60  
Snow  
Snow 0.00 in 0.30 in 11.80 in (1971)
Month to date snowfall T 4.6  
Since 1 July snowfall 25.1 31.1  
Snow Depth 0.00 in    
Sea Level Pressure  
Sea Level Pressure 29.85 in    
Wind  
Wind Speed 10 mph (South)    
Max Wind Speed 22 mph    
Max Gust Speed 31 mph    
Visibility 8 miles    
Events Rain    
T = Trace of Precipitation, MM = Missing Value Source: NWS Daily Summary

Daily Weather History Graph

Daily Weather History Graph

Search for Another Location

Airport or City:

Trip Planner

Search our weather history database for the weather conditions in past years. The results will help you decide how hot, cold, wet, or windy it might be!

Date:

Astronomy

Mar. 18, 2014 Rise Set
Actual Time 6:53 AM AKDT 6:56 PM AKDT
Civil Twilight 6:17 AM AKDT 7:32 PM AKDT
Nautical Twilight 5:34 AM AKDT 8:15 PM AKDT
Astronomical Twilight 4:49 AM AKDT 9:00 PM AKDT
Moon 9:49 PM AKDT (3/18) 7:24 AM AKDT (3/18)
Length of Visible Light 13h 15m
Length of Day
12h 03m
Waning Gibbous, 95% of the Moon is Illuminated
Mar 18
Waning Gibbous
Mar 23
Last Quarter
Mar 30
New
Apr 7
First Quarter
Apr 14
Full

Hourly Weather History & Observations

Time (AKDT) Temp. Windchill Dew Point Humidity Pressure Visibility Wind Dir Wind Speed Gust Speed Precip Events Conditions
12:53 AM 37.9 °F 30.9 °F 37.9 °F 100% 30.10 in 10.0 mi SSE 10.4 mph 19.6 mph 0.00 in   Overcast
1:53 AM 37.9 °F 29.6 °F 37.9 °F 100% 30.07 in 10.0 mi SSE 13.8 mph 21.9 mph 0.01 in Rain Light Rain
2:53 AM 37.9 °F 28.9 °F 37.9 °F 100% 30.04 in 8.0 mi SSE 16.1 mph 24.2 mph 0.03 in Rain Light Rain
3:53 AM 37.9 °F 28.9 °F 37.9 °F 100% 30.01 in 8.0 mi SE 16.1 mph 25.3 mph 0.08 in Rain Rain
4:53 AM 37.9 °F 29.6 °F 37.9 °F 100% 29.98 in 7.0 mi SSE 13.8 mph 24.2 mph 0.10 in Rain Rain
5:20 AM 39.0 °F 28.8 °F 39.0 °F 100% 29.96 in 7.0 mi SSE 21.9 mph 28.8 mph 0.06 in Rain Rain
5:53 AM 39.0 °F 30.6 °F 39.0 °F 100% 29.94 in 8.0 mi SE 15.0 mph 24.2 mph 0.09 in Rain Light Rain
6:06 AM 39.0 °F 30.3 °F 39.0 °F 100% 29.92 in 10.0 mi SE 16.1 mph 26.5 mph 0.01 in Rain Light Rain
6:35 AM 39.0 °F 30.6 °F 39.0 °F 100% 29.91 in 8.0 mi SSE 15.0 mph 26.5 mph 0.03 in Rain Light Rain
6:53 AM 39.0 °F 30.6 °F 39.0 °F 100% 29.90 in 9.0 mi SSE 15.0 mph 29.9 mph 0.05 in Rain Light Rain
7:53 AM 39.9 °F 32.1 °F 39.9 °F 100% 29.87 in 7.0 mi SE 13.8 mph 26.5 mph 0.07 in Rain Light Rain
8:53 AM 41.0 °F 32.8 °F 41.0 °F 100% 29.85 in 4.0 mi SSE 16.1 mph 26.5 mph 0.09 in Rain Rain
9:53 AM 41.0 °F 33.5 °F 41.0 °F 100% 29.82 in 6.0 mi SSE 13.8 mph 27.6 mph 0.08 in Rain Light Rain
10:53 AM 41.0 °F 33.1 °F 41.0 °F 100% 29.81 in 5.0 mi SSE 15.0 mph 26.5 mph 0.07 in Rain Light Rain
11:53 AM 41.0 °F 33.9 °F 41.0 °F 100% 29.78 in 6.0 mi SSE 12.7 mph 27.6 mph 0.09 in Rain Light Rain
12:53 PM 41.0 °F 34.3 °F 41.0 °F 100% 29.77 in 5.0 mi SSE 11.5 mph 23.0 mph 0.08 in Rain Light Rain
1:43 PM 41.0 °F 33.9 °F 41.0 °F 100% 29.74 in 6.0 mi SSE 12.7 mph 21.9 mph 0.06 in Rain Light Rain
1:53 PM 41.0 °F 34.7 °F 41.0 °F 100% 29.75 in 7.0 mi SSE 10.4 mph - 0.07 in Rain Light Rain
2:07 PM 41.0 °F 35.2 °F 41.0 °F 100% 29.74 in 7.0 mi South 9.2 mph 19.6 mph 0.01 in Rain Light Rain
2:53 PM 41.0 °F 37.1 °F 41.0 °F 100% 29.75 in 9.0 mi Variable 5.8 mph 18.4 mph 0.04 in Rain Light Rain
2:59 PM 39.9 °F 35.8 °F 39.9 °F 100% 29.74 in 7.0 mi WSW 5.8 mph - 0.00 in Rain Light Rain
3:53 PM 39.0 °F 34.8 °F 39.0 °F 100% 29.75 in 10.0 mi SSW 5.8 mph - 0.02 in   Overcast
4:00 PM 39.9 °F 36.7 °F 39.0 °F 97% 29.74 in 10.0 mi South 4.6 mph - N/A   Overcast
4:21 PM 41.0 °F 36.4 °F 39.9 °F 96% 29.75 in 10.0 mi SW 6.9 mph - N/A   Overcast
4:28 PM 41.0 °F 35.8 °F 39.9 °F 96% 29.75 in 10.0 mi SW 8.1 mph - N/A   Overcast
4:53 PM 41.0 °F 37.1 °F 39.9 °F 96% 29.76 in 10.0 mi Variable 5.8 mph - N/A   Overcast
5:13 PM 41.0 °F 35.2 °F 37.9 °F 89% 29.76 in 10.0 mi West 9.2 mph - N/A   Overcast
5:53 PM 39.0 °F 33.4 °F 36.0 °F 89% 29.79 in 10.0 mi West 8.1 mph - N/A   Scattered Clouds
6:53 PM 37.0 °F 32.4 °F 35.1 °F 93% 29.82 in 10.0 mi West 5.8 mph - N/A   Clear
7:53 PM 36.0 °F 30.3 °F 34.0 °F 93% 29.84 in 10.0 mi West 6.9 mph - N/A   Partly Cloudy
8:53 PM 35.1 °F 32.2 °F 33.1 °F 92% 29.87 in 10.0 mi Variable 3.5 mph - N/A   Scattered Clouds
9:53 PM 34.0 °F 31.0 °F 33.1 °F 96% 29.88 in 10.0 mi West 3.5 mph - N/A   Partly Cloudy
10:53 PM 33.1 °F 30.0 °F 33.1 °F 100% 29.90 in 10.0 mi West 3.5 mph - N/A   Partly Cloudy
11:53 PM 30.9 °F - 30.9 °F 100% 29.91 in 10.0 mi Calm Calm - N/A   Clear